CAPE
1635 1651 1819 1967 1887 1898 1487 1509 1710 2122 2098 2209 2590 2480 2247 2150 2378 2688 2207 1743 2414 2129 2212 2353 2362 2381 1875 1426 1617 1780 1785 1703 1730 1375 1882 2277 3076 3063 3425 3508 2601 2312 1455
1470 1501 1656 1705 2154 1625 1612 1394 1409 1884 2320 2206 2177 2749 2643 2583 2656 2437 1704 1669 2206 2170 2287 2249 2228 1791 2705 2599 1835 2030 2292 2167 1975 2484 3233 2314 2732 2816 3211 3299 2454 1715 2185
1202 1245 1408 1500 1548 1816 1655 1661 1416 1427 1748 1903 2012 2355 2561 2583 2625 2871 2306 1999 2116 2238 2389 2455 2043 2063 2479 2032 2213 2040 1868 2077 2290 2049 2210 2115 2247 2281 2714 2744 2421 1973 1109
835 1110 1197 1310 1436 1455 2006 1937 1763 1655 1600 1578 1808 2036 2268 2445 2538 2526 2596 2683 2452 2066 2553 2666 2296 1659 2186 2466 2632 2780 2704 2838 3059 2367 2191 1885 1548 2126 2091 1668 1109 936 1246
1127 1116 1234 1676 1440 1300 1557 1544 1773 1864 1764 1724 1545 1483 1719 1833 1925 2563 2523 2512 2836 2819 2587 2726 2301 1502 1091 1348 1487 2623 2428 2184 1955 1617 1418 1137 1039 1266 2009 1288 1064 1046 1864
186 946 1344 1505 1763 1631 1657 1807 1796 1865 1944 1906 1838 1562 1244 871 496 1068 1740 2380 2506 2722 2629 2917 2747 1664 1558 1428 1327 1057 982 2156 2214 1449 664 944 2617 2186 1469 1177 1425 1453 1564
104 161 208 523 1200 1547 1641 1563 1663 1777 1823 1904 1931 1860 1688 1470 321 434 899 1731 1989 2378 2607 2608 2545 1776 2087 2496 1685 1094 854 724 754 1970 2353 2342 2555 2015 2458 2572 3245 2557 2342
168 127 179 126 183 524 1223 1768 2025 1697 1665 1784 1803 1879 1884 1884 918 456 309 1390 2253 2576 2569 2381 2735 2594 2267 2158 2424 2374 2187 2014 1965 1634 1874 2108 2445 2201 2533 3063 2983 3113 2732
60 65 58 96 88 84 108 296 829 1656 1747 2079 1684 1830 1976 1974 1113 704 419 774 648 2238 2427 2967 3084 3121 2395 1857 2334 2271 2280 1801 893 1091 1048 1317 1515 1565 1540 1795 1652 1290 861
0 11 44 61 49 52 54 86 121 346 1147 1369 1413 1618 1378 1865 1378 1054 567 904 1283 284 1322 2889 1728 1907 2046 1748 2297 2467 2303 1935 1226 1229 1580 1308 1230 1313 969 1073 1704 1392 914
0 0 15 75 99 117 80 79 186 472 617 588 907 1443 1563 1412 1578 994 854 1032 1008 1031 651 190 297 555 1127 1053 1226 2889 2516 1851 1279 1300 1672 1534 1576 1507 1681 2006 2630 1826 1207
0 0 0 0 0 48 100 163 85 214 539 487 252 356 812 1584 1223 952 796 576 684 1360 1664 1120 1283 546 188 450 581 444 965 1194 1103 219 348 648 757 670 595 1222 3491 3498 2566
0 0 0 13 3 0 0 0 45 125 127 243 325 377 374 563 1284 1106 830 592 574 509 1038 1064 987 903 826 743 663 511 302 671 704 344 388 699 720 641 2117 2638 3107 3918 3753
0 0 0 0 8 2 0 0 3 79 45 52 123 359 313 279 610 915 1242 1054 758 494 619 618 649 710 809 827 683 501 347 737 728 692 888 986 886 774 693 1192 1586 1636 2005
0 0 0 0 0 3 0 0 0 0 51 18 41 59 97 40 444 486 609 1391 2351 809 530 623 837 896 1139 1290 1199 1179 1298 1259 1026 1236 1352 1366 1253 1004 809 997 1304 1566 1702
0 0 0 0 0 0 0 0 0 0 0 0 2 6 31 24 39 39 228 660 845 906 690 765 1450 1698 1857 1874 1819 1510 1318 1116 1482 1559 1519 1442 1376 1120 712 775 1170 1553 1676
5 1 1 0 0 0 0 0 0 0 0 0 0 1 0 0 5 12 56 223 267 765 968 1553 1484 1702 2010 2226 2238 1477 1615 1646 2369 1473 1177 1201 1089 753 688 1038 1371 1730 1939
13 0 5 9 0 1 1 0 0 0 0 0 0 0 0 0 1 19 67 191 353 602 750 1468 1740 1839 2188 2053 1724 1721 1833 1463 2031 1957 1219 1048 1038 1051 1230 1469 1610 2016 2623
29 16 11 14 16 1 3 0 0 0 4 0 0 0 6 2 1 19 77 126 287 540 234 503 1363 1835 2489 2858 2415 2139 2062 1929 1690 1899 2022 2393 2357 2213 1891 1800 2350 1973 2103
33 25 25 25 24 0 0 6 0 2 3 0 0 2 0 0 0 3 32 47 154 619 886 510 550 1020 1492 2109 2290 2621 2603 2082 2289 1940 1915 2565 3038 2939 2615 2412 2426 2436 2543
9 17 37 36 39 38 2 13 7 1 3 0 0 0 0 0 0 1 32 70 96 182 263 790 453 375 428 599 936 1160 1251 1437 1569 2018 1991 1298 1688 1882 2179 2111 2614 2206 2299
0 0 16 37 47 47 45 17 0 9 1 0 0 0 0 0 0 0 10 27 69 89 60 92 93 37 40 73 207 400 486 817 1212 1305 1362 1230 1375 1924 1756 1800 1526 1930 2077
1 0 4 29 22 32 18 0 0 0 0 0 0 0 0 0 0 0 3 19 59 98 94 88 62 50 44 27 23 44 157 299 371 403 419 446 846 1114 980 1076 1124 986 1078
0 0 2 0 3 8 12 0 0 0 0 0 0 0 0 0 0 1 5 64 97 100 117 14 4 30 60 97 102 95 128 147 233 281 305 308 319 336 335 213 208 252 541
0 0 0 0 0 0 0 0 0 0 0 0 0 0 0 0 0 3 19 80 120 192 135 80 55 68 195 207 202 217 248 218 201 224 239 210 193 116 116 100 131 121 193
0 0 0 0 0 0 0 0 0 0 0 0 0 0 0 0 0 15 61 203 288 294 331 304 253 282 339 297 322 290 290 254 292 309 270 249 228 221 194 188 158 94 88
CIN
-34 -27 -36 -37 -27 -14 -13 -6 0 0 0 0 0 0 0 0 0 0 0 0 0 0 0 0 0 0 0 0 0 0 -5 -11 -16 -33 -15 -7 -12 -19 -17 -20 -57 -73 -163
-2 -15 -23 -40 -21 -23 -19 -15 -12 0 0 0 0 0 0 0 0 -1 -7 0 0 0 0 0 0 0 0 -1 0 -1 -1 -1 -16 -10 -1 -20 -12 -28 -21 -26 -67 -96 -93
-1 -12 -24 -40 -37 -40 -27 -22 -19 -19 -3 0 0 0 0 -1 0 0 -2 -1 0 0 0 0 0 0 0 0 0 0 -3 -5 -6 -23 -25 -26 -31 -41 -32 -35 -64 -110 -143
-10 -8 -24 -27 -26 -30 -18 -15 -13 -19 -19 -8 -1 0 0 0 0 0 0 0 0 0 0 0 0 0 0 0 0 0 0 0 0 -12 -22 -31 -54 -29 -54 -75 -124 -126 -113
0 -6 -10 -4 -22 -22 -18 -27 -13 -3 -13 -19 -13 -8 -4 0 0 0 0 0 0 0 0 0 0 -10 -30 -19 -1 0 0 -2 -14 -37 -57 -85 -83 -61 -37 -99 -128 -128 -64
-64 -3 0 -2 0 -1 -5 -7 -5 -5 -4 -7 -9 -13 -16 -8 -19 -9 -9 0 0 0 0 0 -2 -20 -39 -57 -69 -109 -119 -1 -4 -65 -142 -109 -6 -24 -65 -104 -91 -84 -71
-50 -57 -50 -28 -4 0 0 0 -1 -5 -2 -1 -4 -6 -10 -18 -106 -76 -51 -9 0 0 0 0 0 0 -17 -4 -27 -110 -155 -193 -210 -36 -10 -21 -10 -22 -4 -8 0 -21 -38
-53 -48 -42 -45 -31 -43 0 0 0 0 0 0 -2 -2 -5 -8 -72 -111 -122 -24 -1 0 0 0 0 0 -1 -3 -2 0 -2 -9 -50 -83 -63 -55 -28 -25 -3 0 0 -7 -30
-56 -73 -75 -17 -46 -121 -76 -18 0 0 0 0 0 -5 -4 -8 -59 -123 -117 -53 -49 0 0 0 0 0 -7 -27 -8 -1 0 -19 -84 -86 -120 -119 -109 -107 -96 -52 -57 -48 -76
0 -100 -75 -69 -104 -125 -46 -30 -38 -16 0 0 -1 -2 -19 -15 -45 -84 -121 -36 -17 -104 -14 0 -31 -25 -27 -48 -22 -4 0 -21 -63 -43 -27 -146 -148 -203 -217 -211 -72 -54 -67
0 0 -21 -32 -3 -1 -3 -4 0 -4 -3 -20 -4 0 0 -17 -22 -72 -97 -62 -34 -25 -50 -115 -128 -173 -144 -156 -123 -3 -13 -25 -52 -41 -23 -53 -54 -62 -54 -87 -51 -69 -59
0 0 0 0 0 -5 -2 -5 -11 -12 0 -12 -46 -44 -21 -12 -41 -64 -89 -105 -112 -32 -8 -5 -15 -100 -183 -255 -205 -273 -173 -84 -40 -186 -159 -119 -100 -96 -87 -40 -1 -11 -28
0 0 0 0 0 0 0 -4 -12 -20 -17 -18 -13 -23 -49 -52 -26 -35 -72 -113 -62 -61 -55 -46 -33 -30 -58 -100 -130 -147 -279 -157 -156 -194 -169 -110 -98 -103 -9 -2 0 0 0
0 0 0 0 0 0 0 0 -3 -6 -27 -45 -14 -1 -15 -11 -1 -2 -11 -48 -86 -26 -35 -62 -60 -76 -66 -79 -136 -194 -229 -160 -153 -143 -96 -72 -67 -80 -94 -44 -25 -8 0
0 0 0 0 0 0 0 0 0 0 -3 -5 -13 -12 0 -32 -18 -6 -5 -8 -1 -49 -42 -36 -46 -40 -35 -25 -40 -53 -54 -64 -89 -56 -25 -14 -29 -47 -59 -42 -23 -11 -3
0 0 0 0 0 0 0 0 0 0 0 0 -10 -16 -7 -9 -10 -10 -31 -11 -12 -3 -7 -26 -2 -1 0 -1 -1 -15 -23 -41 -5 -1 -7 -12 -15 -23 -55 -37 -10 -1 -4
0 0 0 0 0 0 0 0 0 0 0 0 0 -65 0 0 -92 -14 -118 -112 -69 -1 0 0 -1 0 0 0 -2 -21 -15 -13 0 0 -5 -10 -17 -39 -32 -8 0 0 0
0 0 0 0 0 0 0 0 0 0 0 0 0 0 0 0 -15 -88 -85 -62 -51 -13 -2 0 0 0 -1 -1 0 -4 -4 -9 0 0 0 -6 -6 -2 0 0 0 0 0
0 0 0 0 0 0 0 0 0 0 0 -1 0 0 0 0 -14 -38 -27 -34 -34 -31 -73 -30 -9 0 0 0 0 -1 0 0 0 0 -1 -1 0 0 0 0 0 -4 -4
0 -1 -7 0 0 0 0 0 0 0 0 0 0 -4 0 0 0 -31 -66 -72 -34 -5 -8 -37 -34 -4 0 0 0 0 0 0 0 0 0 0 0 0 0 0 0 0 -1
0 0 0 0 0 0 0 0 0 0 0 0 0 0 0 0 0 -31 -43 -25 -31 -2 -2 -2 -1 -12 -12 0 -1 0 0 0 0 0 0 -9 0 0 0 0 0 0 0
0 0 0 0 0 0 0 0 0 0 0 0 0 0 0 0 0 0 -65 -29 -4 -15 -30 -42 -66 -86 -149 -78 -7 -4 -2 -10 0 0 0 -2 -1 0 0 0 -4 0 0
0 0 0 0 0 -1 0 0 0 0 0 0 0 0 0 0 0 0 -49 -60 -9 -10 -18 -47 -64 -112 -64 -66 -55 -35 -34 -84 -67 -41 -41 -42 -23 -14 -17 -9 -3 -15 -19
0 -1 0 0 0 0 0 0 0 0 0 0 0 0 0 0 0 0 -123 -74 -25 -39 -20 -86 -134 -169 -36 -40 -46 -36 -31 -57 -74 -76 -52 -44 -42 -59 -71 -94 -63 -83 -44
0 0 0 0 0 0 0 0 0 0 0 0 0 0 0 0 0 -83 -150 -84 -41 -24 -29 -61 -102 -101 -30 -26 -32 -12 -13 -29 -37 -13 -18 -39 -41 -66 -59 -89 -83 -93 -60
0 0 0 0 0 0 0 0 0 0 0 0 0 0 0 0 0 -67 -60 -30 -2 -15 -1 -5 -13 -8 -11 -12 -12 -4 0 -2 -1 0 -4 -6 -11 -11 -4 -2 -6 -8 -6
Wind_Speed
20 18 16 16 14 14 12 10 9 8 7 4 2 3 3 3 4 5 10 9 6 8 10 8 10 12 13 12 12 12 12 11 12 12 12 9 9 7 8 7 7 9 14
25 23 19 20 20 15 14 13 11 8 8 6 4 1 3 5 4 3 4 7 7 8 8 9 9 9 7 9 10 10 13 12 10 10 9 6 4 4 5 4 3 4 3
27 26 24 20 19 19 16 17 15 13 10 8 7 5 3 3 4 4 2 4 7 7 8 8 9 7 7 10 8 10 6 5 4 4 5 2 3 1 1 3 5 4 5
33 31 28 24 22 21 24 20 17 17 15 11 9 7 5 4 3 4 6 5 5 8 9 8 8 7 7 7 5 5 6 6 3 1 1 2 2 2 3 4 8 7 3
32 33 31 30 29 25 25 22 20 18 17 16 14 10 7 5 6 5 5 7 9 8 9 10 9 10 10 9 8 6 7 5 5 4 3 4 6 7 6 7 7 9 8
44 38 36 37 38 32 30 28 25 22 21 19 16 14 12 10 10 14 8 7 7 8 10 10 9 16 13 11 10 9 9 8 7 8 9 9 12 10 10 9 9 9 8
45 43 44 46 44 39 37 33 30 28 28 23 20 18 15 13 17 19 18 10 8 8 8 10 11 12 14 11 14 11 11 10 10 11 11 11 10 9 7 9 10 8 5
52 52 49 50 47 46 45 38 35 33 31 29 26 23 20 19 21 23 23 14 13 9 9 9 9 9 10 12 11 11 13 13 15 15 12 9 8 9 9 10 10 8 7
nan nan nan nan nan nan 49 44 45 37 35 34 29 27 24 22 27 25 30 19 13 12 13 12 11 11 11 17 9 7 9 9 14 16 11 10 12 14 15 12 8 7 5
nan nan nan nan nan nan nan nan 43 41 33 34 34 30 29 27 32 32 31 26 19 17 18 16 16 11 17 23 16 11 10 11 13 10 17 14 13 14 22 12 9 9 7
nan nan nan nan nan 47 nan nan 43 42 38 38 34 32 35 31 29 35 34 28 24 22 20 21 18 20 17 20 23 15 12 17 18 15 12 13 15 15 19 21 16 12 11
nan nan nan nan nan nan 48 43 nan 36 43 39 37 35 36 32 32 35 35 30 26 25 22 23 21 26 24 22 26 16 18 21 15 14 13 13 14 16 17 17 18 20 15
nan nan nan nan nan nan nan nan nan 47 46 47 43 43 42 39 40 31 29 31 28 31 26 26 31 36 33 31 25 23 23 19 14 14 14 14 14 15 18 18 18 17 15
nan nan nan nan nan nan nan nan nan nan nan nan 54 47 46 43 36 31 31 37 35 37 28 29 30 34 33 30 30 29 23 19 18 16 16 17 17 19 19 21 20 17 17
nan nan nan nan nan nan nan nan nan nan nan nan nan nan nan nan 43 51 50 45 42 39 43 41 39 35 31 29 27 26 26 28 25 23 21 20 21 22 22 25 24 24 21
nan nan nan nan nan nan nan nan nan nan nan nan nan nan nan nan nan nan 40 41 43 46 51 45 38 37 35 32 33 35 34 30 30 30 28 26 23 23 24 26 26 25 26
nan nan nan nan nan nan nan nan nan nan nan nan nan nan nan nan nan nan nan 43 43 51 41 39 38 39 40 40 43 42 41 39 36 34 32 30 29 28 28 27 27 27 28
nan nan nan nan nan nan nan nan nan nan nan nan nan nan nan nan nan nan nan 50 54 52 45 43 44 44 46 51 50 48 47 47 43 39 37 35 33 33 32 29 31 30 30
nan nan nan nan nan nan nan nan nan nan nan nan nan nan nan nan nan nan nan 44 45 49 52 46 50 50 48 49 49 51 49 48 45 45 42 40 36 36 33 31 33 31 31
nan nan nan nan nan nan nan nan nan nan nan nan nan nan nan nan nan nan nan nan 38 41 50 47 49 48 48 52 54 51 47 48 48 47 45 43 41 40 37 33 32 31 34
nan nan nan nan nan nan nan nan nan nan nan nan nan nan nan nan nan nan nan nan nan 50 60 55 54 52 57 56 58 59 49 46 47 48 47 50 47 43 41 38 35 32 31
nan nan nan nan nan nan nan nan nan nan nan nan nan nan nan nan nan nan nan nan nan nan nan nan nan nan nan nan 44 45 50 54 54 54 53 49 47 43 41 41 39 40 38
nan nan nan nan nan nan nan nan nan nan nan nan nan nan nan nan nan nan nan nan nan nan nan nan nan nan nan nan nan nan 52 58 59 53 48 47 43 41 42 41 40 40 35
nan nan nan nan nan nan nan nan nan nan nan nan nan nan nan nan nan nan nan nan nan 50 48 nan nan nan nan nan 60 nan 55 61 57 52 48 44 45 50 50 47 44 42 39
nan nan nan nan nan nan nan nan nan nan nan nan nan nan nan nan nan nan nan nan 58 57 51 nan nan nan 52 66 61 49 46 47 49 40 38 41 42 40 34 36 38 41 47
nan nan nan nan nan nan nan nan nan nan nan nan nan nan nan nan nan nan nan 58 59 62 48 51 61 56 47 42 41 42 44 47 49 48 47 44 45 48 47 48 51 nan nan
Wind_Direction
217 211 211 215 228 220 206 205 202 197 191 189 213 184 224 257 254 214 182 199 202 190 179 184 174 176 169 178 175 168 167 163 153 150 163 165 146 133 134 128 89 64 338
225 224 219 214 221 232 225 217 218 224 217 210 202 242 203 204 259 257 184 196 208 202 188 190 182 186 183 174 172 179 173 176 160 154 166 152 133 138 107 109 74 83 37
243 237 233 229 227 224 229 231 224 225 229 223 224 218 206 211 226 243 237 205 206 205 197 185 177 192 192 179 199 184 187 204 194 150 166 150 179 103 233 8 360 2 26
218 240 234 232 234 230 226 230 234 235 235 237 239 237 240 222 237 227 245 238 226 216 218 206 190 191 191 202 210 201 205 199 197 170 161 207 237 251 356 315 300 326 310
222 220 227 239 243 233 241 236 236 237 242 246 253 262 259 254 259 286 246 243 231 222 223 239 229 218 218 209 207 243 214 224 212 216 243 279 289 260 244 273 293 283 310
217 220 219 221 226 232 230 233 235 239 240 242 250 257 264 258 273 276 269 265 259 243 232 244 235 257 251 245 244 227 214 236 252 242 250 270 278 305 311 298 278 278 279
227 227 223 222 222 223 225 230 228 233 238 237 239 245 250 257 256 274 286 272 258 267 255 250 257 256 276 260 280 276 263 267 280 265 267 275 270 287 297 291 291 272 277
238 237 237 227 228 226 224 225 232 232 234 237 238 242 243 244 257 271 274 271 264 262 268 270 269 253 259 275 267 272 279 284 295 287 295 283 288 303 298 292 285 308 324
nan nan nan nan nan nan 227 224 226 227 233 235 235 238 244 247 261 268 268 263 254 259 262 273 274 274 277 283 288 268 267 269 275 303 308 293 290 277 275 266 303 334 296
nan nan nan nan nan nan nan nan 224 224 226 233 233 233 236 236 250 264 268 260 261 258 264 266 276 280 274 288 291 279 279 279 275 267 292 298 302 298 306 318 313 331 316
nan nan nan nan nan 245 nan nan 224 230 229 233 233 233 233 233 240 258 267 259 255 257 259 261 264 293 293 283 285 278 280 262 274 285 301 284 277 286 291 304 319 321 306
nan nan nan nan nan nan 239 243 nan 235 235 232 234 237 238 239 244 248 263 272 255 249 244 253 254 266 281 284 280 287 268 257 269 279 291 294 267 266 273 292 307 317 304
nan nan nan nan nan nan nan nan nan 253 251 241 236 242 243 234 228 252 263 273 270 258 248 242 235 243 251 262 271 268 277 274 273 273 281 284 278 265 261 270 284 298 293
nan nan nan nan nan nan nan nan nan nan nan nan 242 239 242 247 254 247 256 266 261 254 252 243 239 237 236 238 258 270 266 265 271 272 269 270 271 276 281 288 294 301 306
nan nan nan nan nan nan nan nan nan nan nan nan nan nan nan nan 245 243 241 244 259 256 254 250 249 250 249 253 258 262 267 273 270 263 259 260 266 269 276 281 289 293 297
nan nan nan nan nan nan nan nan nan nan nan nan nan nan nan nan nan nan 236 239 239 254 262 249 253 256 254 252 251 253 256 260 262 266 268 267 268 272 275 277 279 281 284
nan nan nan nan nan nan nan nan nan nan nan nan nan nan nan nan nan nan nan 235 257 260 256 250 255 255 254 253 254 254 255 260 257 258 262 264 268 271 273 275 275 276 280
nan nan nan nan nan nan nan nan nan nan nan nan nan nan nan nan nan nan nan 252 256 254 266 263 254 253 251 251 252 253 255 256 258 260 263 265 265 269 271 274 273 272 274
nan nan nan nan nan nan nan nan nan nan nan nan nan nan nan nan nan nan nan 247 254 253 248 255 256 255 251 250 251 253 256 258 258 260 261 258 258 259 263 268 270 277 272
nan nan nan nan nan nan nan nan nan nan nan nan nan nan nan nan nan nan nan nan 242 240 246 257 260 262 259 259 256 245 251 256 258 258 259 258 259 257 258 265 270 276 282
nan nan nan nan nan nan nan nan nan nan nan nan nan nan nan nan nan nan nan nan nan 238 241 245 234 253 259 256 247 236 241 250 255 255 256 255 253 253 256 259 263 266 274
nan nan nan nan nan nan nan nan nan nan nan nan nan nan nan nan nan nan nan nan nan nan nan nan nan nan nan nan 235 240 242 247 244 245 244 248 251 253 253 256 258 260 265
nan nan nan nan nan nan nan nan nan nan nan nan nan nan nan nan nan nan nan nan nan nan nan nan nan nan nan nan nan nan 248 251 239 238 243 244 244 249 252 255 258 261 268
nan nan nan nan nan nan nan nan nan nan nan nan nan nan nan nan nan nan nan nan nan 245 246 nan nan nan nan nan 250 nan 254 246 246 247 241 238 246 250 248 246 247 249 257
nan nan nan nan nan nan nan nan nan nan nan nan nan nan nan nan nan nan nan nan 240 248 248 nan nan nan 243 237 244 245 247 227 233 235 244 246 247 250 261 268 262 261 267
nan nan nan nan nan nan nan nan nan nan nan nan nan nan nan nan nan nan nan 241 242 244 245 245 253 257 261 247 248 237 231 233 236 237 244 246 251 257 260 261 260 nan nan